Regional Weather Roundup
Issued by NWS

Home | Current Version | Previous Version | Graphics & Text | Print | Product List | Glossary On
Versions: 1 2 3 4 5 6 7 8 9 10 11 12 13 14 15 16 17 18 19 20 21 22 23 24 25 26 27 28 29 30 31 32 33 34 35 36 37 38 39 40 41 42 43 44 45 46 47 48 49 50
000
ASUS43 KOAX 281702
RWRNE

WEATHER ROUNDUP FOR NEBRASKA
NATIONAL WEATHER SERVICE OMAHA NE
1200 PM CDT TUE JUL 28 2015

NOTES: SATELLITE DATA IS BEING USED TO AUGMENT CLOUD COVER ABOVE
       12000 FEET.
       "FAIR" INDICATES FEW OR NO CLOUDS BELOW 12,000 FEET WITH NO
       SIGNIFICANT WEATHER AND/OR OBSTRUCTIONS TO VISIBILITY.

  * THESE STATIONS DO NOT REPORT WEATHER SUCH AS RAIN...SNOW OR FOG.

NEZ001>004-019>022-054>056-281800-
NEBRASKA PANHANDLE

CITY           SKY/WX    TMP DP  RH WIND       PRES   REMARKS
SCOTTSBLUFF    SUNNY     74  37  26 W16G24    30.10R
ALLIANCE       SUNNY     73  39  29 NW18G26   30.09R
CHADRON        SUNNY     72  45  37 NW9G23    30.07S
KIMBALL        SUNNY     73  32  21 NW18G24   30.12R
SIDNEY         SUNNY     75  30  19 NW15G28   30.13R
$$

NEZ057>060-069>072-079>082-281800-
SOUTHWEST NEBRASKA

CITY           SKY/WX    TMP DP  RH WIND       PRES   REMARKS
NORTH PLATTE   SUNNY     78  47  33 N14G24    30.02R
IMPERIAL       MOSUNNY   75  42  30 N14       30.07R
MCCOOK         SUNNY     79  52  38 N18       30.00R
$$

NEZ005>010-023>029-035>040-094-281800-
NORTH CENTRAL NEBRASKA

CITY           SKY/WX    TMP DP  RH WIND       PRES   REMARKS
VALENTINE      SUNNY     75  46  35 NW16G25   30.01R
AINSWORTH      SUNNY     75  50  41 NW13G18   30.02R
BROKEN BOW     SUNNY     77  51  40 N18G25    30.00R
O`NEILL        SUNNY     74  54  49 NW20G26   29.99R
ORD            MOSUNNY   77  50  38 N22G32    29.96R
$$

NEZ041-046>049-061>064-073>077-083>087-281800-
SOUTH CENTRAL NEBRASKA

CITY           SKY/WX    TMP DP  RH WIND       PRES   REMARKS
GRAND ISLAND   PTSUNNY   76  68  76 N17       29.93R
AURORA         PTSUNNY   77  73  85 N17       29.90R
HASTINGS       MOSUNNY   77  67  71 N22       29.92R
KEARNEY *      PTSUNNY   79  57  47 N25G33    29.94R
$$

NEZ011>018-030>034-042>045-281800-
NORTHEAST NEBRASKA

CITY           SKY/WX    TMP DP  RH WIND       PRES   REMARKS
NORFOLK        CLOUDY    74  70  87 NW15G25   29.89S
BLAIR          MOSUNNY   81  72  74 SE9G16    29.88R
COLUMBUS *     PTSUNNY   75  70  83 S5        29.88R
FREMONT        MOSUNNY   80  72  75 SE9       29.87R
TEKAMAH        PTSUNNY   79  72  79 S15       29.86R
$$

NEZ050>053-065>068-078-088>093-281800-
SOUTHEAST NEBRASKA

CITY           SKY/WX    TMP DP  RH WIND       PRES   REMARKS
LINCOLN        SUNNY     87  73  62 SE8       29.86R HX  94
OMAHA EPPLEY   MOSUNNY   84  73  69 SE16      29.85S HX  90
FALLS CITY     SUNNY     89  75  63 S8        29.87S HX  99
$$

NEZ044-045-051>053-067-281800-
OMAHA AREA

CITY           SKY/WX    TMP DP  RH WIND       PRES   REMARKS
OMAHA EPPLEY   MOSUNNY   84  73  69 SE16      29.85S HX  90
BLAIR          MOSUNNY   81  72  74 SE9G16    29.88R
FREMONT        MOSUNNY   80  72  75 SE9       29.87R
$$



USA.gov is the U.S. government's official web portal to all federal, state and local government web resources and services.